SCP
0 0 0 0 0 0 0 0 0 0 0 0 0 -0 0 -0 -0 -0 -0 0 -0 -0 -0 0 -0 -0 -0 -0 -0 -0 -0 -0 0 0 0 0 0 0 0 0 0 -0 0
0 0 -0 0 0 0 0 0 0 0 0 0 -0 0 -0 -0 0 -0 -0 0 -0 -0 -0 -0 -0 -0 -0 -0 -0 0 0 0 -0 0 0 0 0 0 0 0 0 0 0
0 0 -0 0 0 0 0 0 0 0 -0 0 -0 -0 0 -0 -0 0 -0 -0 -0 -0 -0 -0 -0 -0 -0 0 0 -0 0 0 0 0 0 0 0 0 0 0 0 0 0
0 0 0 0 0 0 0 0 0 0 0 -0 -0 0 0 0 -0 0 -0 -0 -0 -0 0 -0 0 -0 -0 -0 -0 -0 -0 0 0 -0 0 0 0 0 0 -0 0 0 0
-0 -0 0 0 0 0 0 0 0 0 0 -0 0 -0 -0 -0 -0 -0 -0 -0 -0 -0 -0 -0 -0 0 -0 -0 -0 -0 -0 -0 0 0 -0 0 0 -0 -0 0 0 0 0
0 0 0 -0 0 0 0 0 0 0 0 0 0 -0 0 -0 -0 0 0 0 -0 0 -0 -0 -0 -0 -0 -0 -0 -0 -0 -0 -0 -0 0 -0 -0 -0 -0 -0 0 0 0
0 0 -0 -0 -0 0 0 0 0 0 0 0 0 0 0 0 0 0 0 0 -0 -0 -0 -0 -0 0 0 -0 -0 -0 -0 -0 -0 0 0 0 -0 -0 -0 -0 0 0 0
0 0 0 0 0 0 0 0 0 0 -0 0 0 0 0 0 0 0 -0 -0 -0 -0 0 0 0 0 0 0 -0 -0 -0 -0 -0 0 0 0 -0 -0 -0 -0 -0 -0 0
-0 -0 -0 -0 0 0 0 0 -0 -0 -0 0 0 -0 0 0 0 -0 0 0 0 0 0 0 0 0 0 0 0 0 -0 -0 -0 -0 0 0 0 -0 -0 -0 -0 -0 0
0 0 -0 0 -0 0 0 0 0 0 -0 -0 -0 -0 0 0 0 -0 0 0 0 0 0 0 0 0 0 0 0 0 -0 -0 -0 -0 -0 -0 -0 -0 -0 -0 0 0 0
0 0 -0 0 0 0 -0 0 0 -0 -0 -0 -0 -0 -0 -0 0 0 0 0 0 0 0 0 0 0 0 0 0 0 0 -0 -0 -0 -0 0 0 0 0 0 0 0 0
-0 0 0 0 0 0 -0 -0 -0 0 -0 0 -0 -0 -0 -0 0 0 0 -0 0 0 -0 0 0 0 0 0 0 0 0 -0 -0 -0 -0 0 0 -0 -0 0 0 0 0
-0 -0 0 0 0 0 0 0 0 0 -0 -0 -0 -0 -0 -0 0 -0 -0 -0 -0 0 -0 0 0 0 0 0 0 0 0 -0 -0 -0 -0 -0 -0 0 0 0 0 -0 -0
-0 0 -0 0 -0 0 0 0 0 0 -0 -0 0 0 -0 -0 -0 0 -0 -0 0 0 -0 0 0 -0 -0 -0 -0 -0 0 -0 -0 -0 -0 -0 -0 -0 0 0 0 0 0
0 0 0 0 -0 -0 0 0 0 0 0 -0 -0 -0 -0 -0 0 -0 0 -0 -0 -0 0 -0 0 0 0 -0 -0 0 0 -0 -0 -0 -0 -0 -0 -0 -0 0 0 0 0
0 0 0 0 -0 0 0 0 0 0 0 0 -0 -0 -0 0 -0 -0 0 0 0 0 -0 0 0 0 0 0 -0 0 0 0 0 -0 -0 -0 -0 -0 -0 -0 -0 0 0
0 0 0 0 0 0 0 0 0 -0 0 0 0 0 0 0 0 0 0 0 0 0 0 0 0 0 0 0 0 0 0 0 0 0 0 0 -0 -0 0 0 0 0 0
0 0 0 0 0 0 0 0 0 0 0 0 0 0 0 0 0 0 0 0 0 0 0 0 0 0 0 0 0 0 0 0 0 0 0 0 0 0 0 0 0 0 0
0 0 0 0 0 0 0 0 0 0 0 0 0 0 0 0 0 0 0 0 0 0 0 0 0 0 0 0 0 0 0 0 0 0 0 0 0 0 0 0 0 0 0
0 0 0 0 0 0 0 0 0 0 0 0 0 0 0 0 0 0 0 0 0 0 0 0 0 0 0 0 0 0 0 0 0 0 0 0 0 0 0 0 0 0 0
0 0 0 0 0 0 0 0 0 0 0 0 0 0 0 0 0 0 0 0 0 0 0 0 0 0 0 0 0 0 0 0 0 0 0 0 0 0 0 0 0 0 0
0 0 0 0 0 0 0 0 0 0 0 0 0 0 0 0 0 0 0 0 0 0 0 0 0 0 0 0 0 0 0 0 0 0 0 0 0 0 0 0 0 0 0
0 0 0 0 0 0 0 0 0 0 0 0 0 0 0 0 0 0 0 0 0 0 0 0 0 0 0 0 0 0 0 0 0 0 0 0 0 0 0 0 0 0 0
0 0 0 0 0 0 0 0 0 0 0 0 0 0 0 0 0 0 0 0 0 0 0 0 0 0 0 0 0 0 0 0 0 0 0 0 0 0 0 0 0 0 0
0 0 0 0 0 0 0 0 0 0 0 0 0 0 0 0 0 0 0 0 0 0 0 0 0 0 0 0 0 0 0 0 0 0 0 0 0 0 0 0 0 0 0
0 0 0 0 0 -0 0 0 0 0 0 0 0 0 0 0 0 0 0 0 0 0 0 0 0 0 0 0 0 0 0 0 0 0 0 0 0 0 0 0 0 0 0
Wind_Speed_500mb
9 8 8 9 4 1 2 5 13 6 7 8 14 16 22 36 35 27 20 16 16 15 13 11 10 14 21 21 18 22 26 28 31 34 37 36 37 36 36 35 34 33 31
7 6 4 4 10 9 7 3 15 3 7 4 3 9 16 27 32 28 23 19 13 13 13 12 7 10 13 12 18 23 28 26 29 30 33 36 38 40 40 37 36 34 34
7 6 7 4 8 7 8 3 10 10 16 6 8 9 15 23 24 21 18 16 9 12 13 11 6 3 8 11 15 17 19 27 29 29 31 32 34 38 41 38 38 36 34
9 9 6 5 7 3 7 7 5 7 17 7 3 9 8 14 19 17 13 12 15 13 14 11 5 1 7 10 11 12 14 16 19 23 31 36 34 33 34 37 38 38 36
11 11 6 3 6 5 3 4 4 6 2 4 6 4 4 7 11 16 11 14 16 20 16 14 9 1 9 13 16 16 14 15 17 20 24 27 31 37 33 33 36 38 38
16 8 11 13 15 12 9 7 9 10 11 7 5 7 6 8 9 11 10 15 23 27 21 18 12 4 8 13 19 19 12 12 17 22 23 26 26 30 35 32 31 34 36
12 11 11 16 17 18 14 10 11 15 10 7 2 5 9 10 15 16 13 11 12 19 23 21 13 8 5 11 18 21 17 14 14 13 14 18 22 25 31 31 28 30 31
10 11 17 18 19 21 16 11 11 11 10 9 6 3 2 5 10 12 11 14 18 14 16 16 17 15 7 10 18 22 19 14 12 9 10 12 15 21 27 28 29 27 27
14 14 13 9 10 18 16 15 10 10 10 7 2 5 5 3 10 10 9 10 21 16 12 8 13 11 8 8 16 18 19 13 10 4 6 9 14 16 25 24 28 29 27
14 14 13 10 10 11 11 10 9 7 3 2 1 2 4 3 6 6 11 13 15 13 11 18 11 7 5 4 11 16 17 17 10 2 4 6 13 17 19 23 26 28 28
19 15 15 16 11 11 11 9 7 7 7 4 4 5 2 8 10 7 11 18 15 17 17 17 14 9 4 6 9 13 16 18 14 3 2 2 4 8 14 18 23 26 29
22 20 17 17 15 11 11 10 9 8 10 11 5 1 1 4 6 8 8 18 17 18 16 16 8 4 5 8 10 12 12 15 16 7 2 1 2 4 6 9 13 23 25
25 26 22 19 13 9 9 15 10 8 9 12 10 7 2 2 5 9 11 13 16 17 17 17 17 12 6 5 9 11 10 10 12 12 6 2 2 1 2 7 9 13 18
20 22 20 20 14 12 8 13 21 14 12 12 12 12 15 12 5 7 10 12 13 15 19 18 18 15 13 10 12 9 6 6 6 8 6 3 0 4 5 6 8 10 14
26 27 27 24 21 22 15 15 24 16 11 14 10 14 16 17 18 11 11 15 15 9 13 19 16 17 18 15 15 11 8 5 3 2 3 2 1 2 4 7 10 11 13
32 31 28 26 25 25 25 22 21 21 17 13 14 18 16 16 15 16 13 12 15 11 7 15 19 17 23 23 18 15 11 9 8 7 5 4 3 4 6 8 11 13 15
37 39 39 38 36 33 33 30 29 28 26 20 18 19 17 16 20 18 17 14 14 13 12 12 19 18 22 24 18 9 10 15 12 13 12 10 9 8 8 9 10 11 13
48 47 42 41 38 31 31 34 35 32 28 20 21 26 25 25 22 16 14 16 16 15 14 13 14 17 22 23 17 11 3 9 12 17 16 15 13 13 13 13 14 15 18
51 48 48 43 38 31 34 37 36 35 30 24 26 25 22 28 26 22 19 16 17 19 20 19 20 19 23 25 24 19 11 8 17 17 15 16 15 14 17 17 18 20 23
51 52 50 45 43 38 37 36 36 35 35 29 29 26 27 27 27 26 26 22 20 21 23 24 24 23 24 25 26 27 24 19 21 23 28 20 14 14 17 18 18 19 22
49 52 53 53 47 45 43 39 41 40 38 35 35 29 29 31 29 25 26 25 26 24 26 27 29 31 33 33 34 32 30 26 23 22 24 31 21 17 15 17 20 19 19
43 50 52 55 56 53 46 44 46 49 47 43 41 34 34 34 34 31 32 31 30 28 26 29 30 35 36 34 32 33 33 32 29 27 27 27 20 20 18 18 20 17 17
52 42 48 58 59 62 57 50 46 48 48 48 42 39 38 34 34 30 28 30 28 28 29 29 30 29 30 29 29 33 35 33 34 28 24 27 22 18 11 11 6 6 1
55 44 63 72 71 64 59 53 51 48 51 48 44 43 40 34 31 30 30 28 28 28 28 30 30 28 27 28 30 32 29 28 29 34 32 27 23 13 11 13 19 17 15
52 55 66 73 78 73 64 54 52 51 51 50 48 48 48 45 39 35 32 27 26 27 27 30 30 29 28 26 27 28 29 26 35 37 36 34 21 12 10 12 14 14 12
56 58 62 61 64 72 58 55 54 52 53 51 49 48 52 49 42 37 33 30 26 24 24 25 24 22 22 21 21 21 21 25 32 29 27 25 16 17 14 16 13 8 8
Wind_Direction_500mb
126 108 104 74 80 50 45 352 343 334 292 313 285 241 231 213 204 215 239 268 264 242 221 212 233 269 274 269 257 256 256 256 252 251 249 250 251 250 249 248 247 245 244
159 123 130 53 36 50 30 87 34 181 294 354 296 224 211 199 210 234 244 252 255 229 207 205 223 273 287 275 260 253 249 251 254 256 253 251 249 250 248 247 245 245 245
193 119 116 90 55 51 57 209 89 34 206 207 182 184 197 207 222 225 234 233 234 228 213 199 203 280 332 301 268 263 258 248 244 244 249 253 251 249 247 245 243 242 243
177 155 123 91 37 79 56 86 102 26 162 150 143 177 168 200 206 223 226 246 230 228 219 199 202 120 5 341 324 296 280 260 244 250 250 251 251 252 246 243 241 237 237
191 201 204 287 337 359 25 4 351 359 53 224 239 213 195 164 198 220 232 237 240 222 218 211 203 137 8 358 343 323 292 269 261 259 258 258 252 246 247 245 238 234 233
205 214 224 252 283 306 311 326 302 315 321 298 259 221 240 227 224 241 242 236 236 228 225 211 219 247 333 355 350 336 306 288 279 271 266 253 250 245 236 239 234 230 230
214 230 249 255 277 293 313 276 307 315 327 335 323 215 213 247 240 249 242 232 197 212 212 209 210 248 291 350 353 348 330 308 306 285 275 258 247 239 228 232 231 225 226
217 239 254 258 265 282 294 284 305 317 323 323 330 357 336 246 226 232 222 205 188 191 195 202 223 230 248 355 358 353 347 329 328 305 284 255 241 229 219 227 224 221 225
244 244 247 246 274 278 279 282 290 295 306 347 230 271 289 288 158 171 175 184 198 195 206 198 191 212 221 348 356 352 355 347 337 314 300 278 241 225 215 219 224 230 234
246 252 240 242 286 277 272 280 261 276 249 221 135 306 330 228 182 185 189 179 198 192 201 189 186 175 202 332 355 357 360 8 357 339 318 285 248 232 223 220 224 229 227
248 260 247 255 275 295 243 259 236 239 242 221 315 16 57 178 193 194 176 183 189 189 191 205 213 194 227 272 321 348 2 12 15 20 262 265 227 221 222 217 226 219 213
236 251 262 261 265 298 234 228 220 241 238 231 263 293 221 156 208 201 213 202 206 207 212 218 227 207 242 236 294 329 350 14 21 35 59 308 232 191 210 221 219 208 204
259 249 259 265 266 281 240 223 215 242 244 243 260 252 225 242 229 215 226 217 220 231 238 241 241 232 223 259 278 312 329 5 28 26 34 94 182 44 141 176 188 193 200
254 244 257 255 254 264 261 252 231 240 262 245 256 249 251 262 275 226 213 222 229 231 242 251 239 229 225 243 260 296 289 336 22 34 46 33 110 150 157 172 182 189 193
244 249 260 258 259 251 268 266 237 240 237 242 256 254 264 260 239 228 230 235 239 237 252 248 242 228 218 219 245 264 257 288 332 357 353 18 133 199 191 191 194 202 212
253 255 259 252 258 257 254 250 232 233 243 251 261 267 261 252 229 228 228 235 257 255 253 252 258 235 224 228 246 258 248 259 285 284 260 260 258 221 213 213 218 220 215
256 257 262 262 258 265 256 246 244 243 243 259 268 250 237 236 236 242 245 259 265 251 275 286 259 239 233 232 229 250 277 271 264 274 268 258 253 249 246 244 242 239 239
259 258 262 264 261 257 241 245 247 254 244 257 261 249 240 233 228 234 232 248 257 250 265 272 273 257 229 222 218 225 276 310 289 274 268 272 269 266 258 250 250 248 245
260 261 257 257 256 253 252 252 246 248 245 257 256 251 245 228 231 243 247 244 244 252 259 260 265 258 241 227 221 223 243 259 260 264 279 270 266 269 266 260 256 253 251
261 260 259 253 253 253 256 243 242 248 250 254 250 252 239 234 243 251 253 253 255 259 254 250 250 250 239 232 234 239 237 259 275 261 265 268 264 270 265 266 268 268 263
260 259 258 254 251 253 249 249 243 246 256 259 251 251 247 240 248 249 249 257 266 263 256 251 246 242 239 238 237 241 240 260 270 260 259 252 251 249 257 273 271 267 262
258 255 250 252 252 251 247 250 247 252 255 252 253 252 247 246 247 253 258 262 265 262 253 252 249 246 250 253 248 244 243 255 252 267 261 251 237 251 264 275 272 262 263
258 241 256 251 248 246 241 243 249 249 250 249 248 246 244 250 250 253 258 266 263 254 250 249 250 249 249 248 250 250 253 263 268 268 257 239 243 245 268 285 282 254 133
247 251 233 245 248 244 239 234 240 245 248 248 244 241 242 245 253 258 269 262 259 255 249 243 243 239 237 241 247 256 261 260 254 251 245 233 229 215 192 173 146 139 144
252 262 244 238 248 236 239 235 234 242 247 247 245 243 240 244 249 261 264 253 249 249 243 239 238 242 238 239 243 246 248 247 242 241 239 234 221 207 165 164 186 201 192
256 259 262 262 232 226 235 231 234 239 244 243 240 240 240 237 240 256 255 246 239 236 235 232 228 227 230 232 235 238 242 252 250 238 246 217 208 186 161 166 166 169 172
Wind_Speed_850mb
9 8 8 9 4 1 2 5 13 6 7 8 14 16 22 36 35 27 20 16 16 15 13 11 10 14 21 21 18 22 26 28 31 34 37 36 37 36 36 35 34 33 31
7 6 4 4 10 9 7 3 15 3 7 4 3 9 16 27 32 28 23 19 13 13 13 12 7 10 13 12 18 23 28 26 29 30 33 36 38 40 40 37 36 34 34
7 6 7 4 8 7 8 3 10 10 16 6 8 9 15 23 24 21 18 16 9 12 13 11 6 3 8 11 15 17 19 27 29 29 31 32 34 38 41 38 38 36 34
9 9 6 5 7 3 7 7 5 7 17 7 3 9 8 14 19 17 13 12 15 13 14 11 5 1 7 10 11 12 14 16 19 23 31 36 34 33 34 37 38 38 36
11 11 6 3 6 5 3 4 4 6 2 4 6 4 4 7 11 16 11 14 16 20 16 14 9 1 9 13 16 16 14 15 17 20 24 27 31 37 33 33 36 38 38
16 8 11 13 15 12 9 7 9 10 11 7 5 7 6 8 9 11 10 15 23 27 21 18 12 4 8 13 19 19 12 12 17 22 23 26 26 30 35 32 31 34 36
12 11 11 16 17 18 14 10 11 15 10 7 2 5 9 10 15 16 13 11 12 19 23 21 13 8 5 11 18 21 17 14 14 13 14 18 22 25 31 31 28 30 31
10 11 17 18 19 21 16 11 11 11 10 9 6 3 2 5 10 12 11 14 18 14 16 16 17 15 7 10 18 22 19 14 12 9 10 12 15 21 27 28 29 27 27
14 14 13 9 10 18 16 15 10 10 10 7 2 5 5 3 10 10 9 10 21 16 12 8 13 11 8 8 16 18 19 13 10 4 6 9 14 16 25 24 28 29 27
14 14 13 10 10 11 11 10 9 7 3 2 1 2 4 3 6 6 11 13 15 13 11 18 11 7 5 4 11 16 17 17 10 2 4 6 13 17 19 23 26 28 28
19 15 15 16 11 11 11 9 7 7 7 4 4 5 2 8 10 7 11 18 15 17 17 17 14 9 4 6 9 13 16 18 14 3 2 2 4 8 14 18 23 26 29
22 20 17 17 15 11 11 10 9 8 10 11 5 1 1 4 6 8 8 18 17 18 16 16 8 4 5 8 10 12 12 15 16 7 2 1 2 4 6 9 13 23 25
25 26 22 19 13 9 9 15 10 8 9 12 10 7 2 2 5 9 11 13 16 17 17 17 17 12 6 5 9 11 10 10 12 12 6 2 2 1 2 7 9 13 18
20 22 20 20 14 12 8 13 21 14 12 12 12 12 15 12 5 7 10 12 13 15 19 18 18 15 13 10 12 9 6 6 6 8 6 3 0 4 5 6 8 10 14
26 27 27 24 21 22 15 15 24 16 11 14 10 14 16 17 18 11 11 15 15 9 13 19 16 17 18 15 15 11 8 5 3 2 3 2 1 2 4 7 10 11 13
32 31 28 26 25 25 25 22 21 21 17 13 14 18 16 16 15 16 13 12 15 11 7 15 19 17 23 23 18 15 11 9 8 7 5 4 3 4 6 8 11 13 15
37 39 39 38 36 33 33 30 29 28 26 20 18 19 17 16 20 18 17 14 14 13 12 12 19 18 22 24 18 9 10 15 12 13 12 10 9 8 8 9 10 11 13
48 47 42 41 38 31 31 34 35 32 28 20 21 26 25 25 22 16 14 16 16 15 14 13 14 17 22 23 17 11 3 9 12 17 16 15 13 13 13 13 14 15 18
51 48 48 43 38 31 34 37 36 35 30 24 26 25 22 28 26 22 19 16 17 19 20 19 20 19 23 25 24 19 11 8 17 17 15 16 15 14 17 17 18 20 23
51 52 50 45 43 38 37 36 36 35 35 29 29 26 27 27 27 26 26 22 20 21 23 24 24 23 24 25 26 27 24 19 21 23 28 20 14 14 17 18 18 19 22
49 52 53 53 47 45 43 39 41 40 38 35 35 29 29 31 29 25 26 25 26 24 26 27 29 31 33 33 34 32 30 26 23 22 24 31 21 17 15 17 20 19 19
43 50 52 55 56 53 46 44 46 49 47 43 41 34 34 34 34 31 32 31 30 28 26 29 30 35 36 34 32 33 33 32 29 27 27 27 20 20 18 18 20 17 17
52 42 48 58 59 62 57 50 46 48 48 48 42 39 38 34 34 30 28 30 28 28 29 29 30 29 30 29 29 33 35 33 34 28 24 27 22 18 11 11 6 6 1
55 44 63 72 71 64 59 53 51 48 51 48 44 43 40 34 31 30 30 28 28 28 28 30 30 28 27 28 30 32 29 28 29 34 32 27 23 13 11 13 19 17 15
52 55 66 73 78 73 64 54 52 51 51 50 48 48 48 45 39 35 32 27 26 27 27 30 30 29 28 26 27 28 29 26 35 37 36 34 21 12 10 12 14 14 12
56 58 62 61 64 72 58 55 54 52 53 51 49 48 52 49 42 37 33 30 26 24 24 25 24 22 22 21 21 21 21 25 32 29 27 25 16 17 14 16 13 8 8
Wind_Direction_850mb
126 108 104 74 80 50 45 352 343 334 292 313 285 241 231 213 204 215 239 268 264 242 221 212 233 269 274 269 257 256 256 256 252 251 249 250 251 250 249 248 247 245 244
159 123 130 53 36 50 30 87 34 181 294 354 296 224 211 199 210 234 244 252 255 229 207 205 223 273 287 275 260 253 249 251 254 256 253 251 249 250 248 247 245 245 245
193 119 116 90 55 51 57 209 89 34 206 207 182 184 197 207 222 225 234 233 234 228 213 199 203 280 332 301 268 263 258 248 244 244 249 253 251 249 247 245 243 242 243
177 155 123 91 37 79 56 86 102 26 162 150 143 177 168 200 206 223 226 246 230 228 219 199 202 120 5 341 324 296 280 260 244 250 250 251 251 252 246 243 241 237 237
191 201 204 287 337 359 25 4 351 359 53 224 239 213 195 164 198 220 232 237 240 222 218 211 203 137 8 358 343 323 292 269 261 259 258 258 252 246 247 245 238 234 233
205 214 224 252 283 306 311 326 302 315 321 298 259 221 240 227 224 241 242 236 236 228 225 211 219 247 333 355 350 336 306 288 279 271 266 253 250 245 236 239 234 230 230
214 230 249 255 277 293 313 276 307 315 327 335 323 215 213 247 240 249 242 232 197 212 212 209 210 248 291 350 353 348 330 308 306 285 275 258 247 239 228 232 231 225 226
217 239 254 258 265 282 294 284 305 317 323 323 330 357 336 246 226 232 222 205 188 191 195 202 223 230 248 355 358 353 347 329 328 305 284 255 241 229 219 227 224 221 225
244 244 247 246 274 278 279 282 290 295 306 347 230 271 289 288 158 171 175 184 198 195 206 198 191 212 221 348 356 352 355 347 337 314 300 278 241 225 215 219 224 230 234
246 252 240 242 286 277 272 280 261 276 249 221 135 306 330 228 182 185 189 179 198 192 201 189 186 175 202 332 355 357 360 8 357 339 318 285 248 232 223 220 224 229 227
248 260 247 255 275 295 243 259 236 239 242 221 315 16 57 178 193 194 176 183 189 189 191 205 213 194 227 272 321 348 2 12 15 20 262 265 227 221 222 217 226 219 213
236 251 262 261 265 298 234 228 220 241 238 231 263 293 221 156 208 201 213 202 206 207 212 218 227 207 242 236 294 329 350 14 21 35 59 308 232 191 210 221 219 208 204
259 249 259 265 266 281 240 223 215 242 244 243 260 252 225 242 229 215 226 217 220 231 238 241 241 232 223 259 278 312 329 5 28 26 34 94 182 44 141 176 188 193 200
254 244 257 255 254 264 261 252 231 240 262 245 256 249 251 262 275 226 213 222 229 231 242 251 239 229 225 243 260 296 289 336 22 34 46 33 110 150 157 172 182 189 193
244 249 260 258 259 251 268 266 237 240 237 242 256 254 264 260 239 228 230 235 239 237 252 248 242 228 218 219 245 264 257 288 332 357 353 18 133 199 191 191 194 202 212
253 255 259 252 258 257 254 250 232 233 243 251 261 267 261 252 229 228 228 235 257 255 253 252 258 235 224 228 246 258 248 259 285 284 260 260 258 221 213 213 218 220 215
256 257 262 262 258 265 256 246 244 243 243 259 268 250 237 236 236 242 245 259 265 251 275 286 259 239 233 232 229 250 277 271 264 274 268 258 253 249 246 244 242 239 239
259 258 262 264 261 257 241 245 247 254 244 257 261 249 240 233 228 234 232 248 257 250 265 272 273 257 229 222 218 225 276 310 289 274 268 272 269 266 258 250 250 248 245
260 261 257 257 256 253 252 252 246 248 245 257 256 251 245 228 231 243 247 244 244 252 259 260 265 258 241 227 221 223 243 259 260 264 279 270 266 269 266 260 256 253 251
261 260 259 253 253 253 256 243 242 248 250 254 250 252 239 234 243 251 253 253 255 259 254 250 250 250 239 232 234 239 237 259 275 261 265 268 264 270 265 266 268 268 263
260 259 258 254 251 253 249 249 243 246 256 259 251 251 247 240 248 249 249 257 266 263 256 251 246 242 239 238 237 241 240 260 270 260 259 252 251 249 257 273 271 267 262
258 255 250 252 252 251 247 250 247 252 255 252 253 252 247 246 247 253 258 262 265 262 253 252 249 246 250 253 248 244 243 255 252 267 261 251 237 251 264 275 272 262 263
258 241 256 251 248 246 241 243 249 249 250 249 248 246 244 250 250 253 258 266 263 254 250 249 250 249 249 248 250 250 253 263 268 268 257 239 243 245 268 285 282 254 133
247 251 233 245 248 244 239 234 240 245 248 248 244 241 242 245 253 258 269 262 259 255 249 243 243 239 237 241 247 256 261 260 254 251 245 233 229 215 192 173 146 139 144
252 262 244 238 248 236 239 235 234 242 247 247 245 243 240 244 249 261 264 253 249 249 243 239 238 242 238 239 243 246 248 247 242 241 239 234 221 207 165 164 186 201 192
256 259 262 262 232 226 235 231 234 239 244 243 240 240 240 237 240 256 255 246 239 236 235 232 228 227 230 232 235 238 242 252 250 238 246 217 208 186 161 166 166 169 172